Regional Weather Roundup
Issued by NWS New Orleans/Baton Rouge, LA

Home | Current Version | Previous Version | Text Only | Print | Product List | Glossary Off
Versions: 1 2 3 4 5 6 7 8 9 10 11 12 13 14 15 16 17 18 19 20 21 22 23 24 25 26 27 28 29 30 31 32 33 34 35 36 37 38 39 40 41 42 43 44 45 46 47 48 49 50

337
ASUS44 KLIX 011510
RWRLIX
NEW ORLEANS REGIONAL WEATHER ROUNDUP
NATIONAL WEATHER SERVICE NEW ORLEANS LA
1000 AM CDT FRI AUG 01 2014

NOTE: "FAIR" INDICATES FEW OR NO CLOUDS BELOW 12,000 FEET WITH NO
      SIGNIFICANT WEATHER AND/OR OBSTRUCTIONS TO VISIBILITY.
      SKY/WX - SKY CONDITION AND SIGNIFICANT WEATHER.
      TMP - AIR TEMPERATURE.     DP    - DEWPOINT TEMPERATURE.
      RH  - RELATIVE HUMIDITY.   PRES  - PRESSURE.
      HI  - HEAT INDEX.          WCI   - WIND CHILL INDEX.

*  THESE STATIONS ARE NOT NWS OR FAA STATIONS AND ARE NOT UNDER
   NWS QUALITY CONTROL.

LAZ038-040-048-061>063-065>067-069-011600-
SOUTHEAST LOUISIANA

CITY           SKY/WX    TMP DP  RH WIND       PRES   REMARKS
N.O. AUDUBON     N/A     87  72  60 MISG        N/A
N.O. INTL ARPT PTSUNNY   85  67  54 SE5       30.01S
N.O. LAKEFRONT MOSUNNY   82  70  66 E6        30.02R
N.O. DOWNTOWN*   N/A     84  70  61 SE8       30.02S
SLIDELL        PTSUNNY   79  68  69 E3        30.02R
BATON ROUGE    CLOUDY    76  72  87 E5        30.01R
BOOTHVILLE     CLOUDY    81  68  64 CALM      30.02S
BELLE CHASSE   PTSUNNY   85  71  63 E6        30.02R
BOGALUSA*        N/A     77  68  74 CALM      30.05R
GALLIANO*      NOT AVBL
NEW ROADS*     RAIN      73  72  94 CALM      30.00F
GONZALES*      LGT RAIN  82  73  76 S5        30.00S
HAMMOND*       PTSUNNY   81  66  61 E7        30.03S
HOUMA*         PTSUNNY   82  72  69 CALM      30.02R
PORT FOURCHON* SUNNY     82  68  61 SE6       30.03F

$$

MSZ070-080>082-011600-
SOUTHERN MISSISSIPPI

CITY           SKY/WX    TMP DP  RH WIND       PRES   REMARKS
MCCOMB         CLOUDY    72  66  81 SE3       30.04R
GULFPORT       CLOUDY    81  66  60 CALM      30.02R
BILOXI         CLOUDY    77  67  72 NE5       30.02R
PASCAGOULA     CLOUDY    78  68  71 CALM      30.03R
STENNIS ARPT*  MOSUNNY  N/A N/A N/A CALM      30.03S

$$

COASTAL OBSERVATIONS
LAKE AND NEARSHORE STATIONS

STATION/POSITION TIME  TEMP    WIND        PRES    WAVE
                       AIR SEA DIR/SP/G            HT/PER
                 (UTC) (F)     (DEG/KT/KT) (MB)    (FT/S)
PASCAGOULA       1500   79      20/  2/  3 1016.0
WAVELAND YACHT   1500   77      30/  3/  5 1016.1
GRAND ISLE       1500   83 86  140/  3/  5 1017.0
SOUTHWEST PASS   1500   85 85   70/  4/  4 1016.9
NEW CANAL        1500   82 82   70/  7/  8 1016.7
SHELL BEACH      1500   81 81   60/  5/  8 1016.5

OFFSHORE STATIONS

STATION/POSITION TIME  TEMP    WIND        PRES    WAVE
                       AIR SEA DIR/SP/G            HT/PER
                 (UTC) (F)     (DEG/KT/KT) (MB)    (FT/S)
64 S DAUPHIN ISL 1411   82 85  340/  2/  4 1016.6

$$




USA.gov is the U.S. government's official web portal to all federal, state and local government web resources and services.